KV6O Weather Reports


Display with metric or nautical units.
time (UTC)temp
F
wind
direction
speed
MPH
gust
MPH
rain 1hr
in
rain 24hr
in
rain mn
in
humidity
%
barometer
mb
20260906214040 73 0 0.0 0.0 0.00 0.00 0.00 52
20260906213241 73 0 0.0 0.0 0.00 0.00 0.00 53
20260906212441 72 0 0.0 0.0 0.00 0.00 0.00 55
20260906211641 73 0 0.0 0.0 0.00 0.00 0.00 55
20260906210841 74 0 0.0 0.0 0.00 0.00 0.00 53
20260906210041 74 0 0.0 0.0 0.00 0.00 0.00 53
20260906205640 74 0 0.0 0.0 0.00 0.00 0.00 54
20260906204840 72 0 0.0 0.0 0.00 0.00 0.00 56
20260906204041 72 0 0.0 0.0 0.00 0.00 0.00 56
20260906203241 72 0 0.0 0.0 0.00 0.00 0.00 56
20260906202441 72 0 0.0 0.0 0.00 0.00 0.00 55
20260906200841 74 0 0.0 0.0 0.00 0.00 0.00 51
20260906200041 75 0 0.0 0.0 0.00 0.00 0.00 49
20260906195640 75 0 0.0 0.0 0.00 0.00 0.00 50
20260906194041 75 0 0.0 0.0 0.00 0.00 0.00 49
20260906193241 75 0 0.0 0.0 0.00 0.00 0.00 50
20260906192441 74 0 0.0 0.0 0.00 0.00 0.00 49
20260906190842 76 0 0.0 0.0 0.00 0.00 0.00 48
20260906190042 75 0 0.0 0.0 0.00 0.00 0.00 48
20260906185641 75 0 0.0 0.0 0.00 0.00 0.00 48
20260906184041 74 0 0.0 0.0 0.00 0.00 0.00 49
20260906183241 73 0 0.0 0.0 0.00 0.00 0.00 52
20260906182440 73 0 0.0 0.0 0.00 0.00 0.00 49
20260906181640 75 0 0.0 0.0 0.00 0.00 0.00 47
20260906180041 76 0 0.0 0.0 0.00 0.00 0.00 44
20260906175640 76 0 0.0 0.0 0.00 0.00 0.00 44
20260906174841 76 0 0.0 0.0 0.00 0.00 0.00 45
20260906174041 75 0 0.0 0.0 0.00 0.00 0.00 46
20260906173241 74 0 0.0 0.0 0.00 0.00 0.00 46
20260906172441 74 0 0.0 0.0 0.00 0.00 0.00 46
20260906171642 73 0 0.0 0.0 0.00 0.00 0.00 47
20260906170841 73 0 0.0 0.0 0.00 0.00 0.00 48
20260906170041 73 0 0.0 0.0 0.00 0.00 0.00 47
20260906165641 73 0 0.0 0.0 0.00 0.00 0.00 46
20260906164841 73 0 0.0 0.0 0.00 0.00 0.00 47
20260906164040 72 0 0.0 0.0 0.00 0.00 0.00 47
20260906163240 72 0 0.0 0.0 0.00 0.00 0.00 48
20260906162440 71 0 0.0 0.0 0.00 0.00 0.00 50
20260906161642 70 0 0.0 0.0 0.00 0.00 0.00 52
20260906160841 69 0 0.0 0.0 0.00 0.00 0.00 52
20260906160041 69 0 0.0 0.0 0.00 0.00 0.00 52
20260906155641 69 0 0.0 0.0 0.00 0.00 0.00 53
20260906154841 70 0 0.0 0.0 0.00 0.00 0.00 52
20260906152441 70 0 0.0 0.0 0.00 0.00 0.00 51
20260906151641 69 0 0.0 0.0 0.00 0.00 0.00 51
20260906150840 69 0 0.0 0.0 0.00 0.00 0.00 51
20260906150040 69 0 0.0 0.0 0.00 0.00 0.00 52
20260906144841 68 0 0.0 0.0 0.00 0.00 0.00 54
20260906143241 66 0 0.0 0.0 0.00 0.00 0.00 59
20260906142441 65 0 0.0 0.0 0.00 0.00 0.00 61
20260906140840 61 0 0.0 0.0 0.00 0.00 0.00 68
20260906140040 60 0 0.0 0.0 0.00 0.00 0.00 70
20260906135641 59 0 0.0 0.0 0.00 0.00 0.00 70
20260906134841 59 0 0.0 0.0 0.00 0.00 0.00 71
20260906134041 59 0 0.0 0.0 0.00 0.00 0.00 73
20260906133240 58 0 0.0 0.0 0.00 0.00 0.00 73
20260906132441 58 0 0.0 0.0 0.00 0.00 0.00 72
20260906131641 58 0 0.0 0.0 0.00 0.00 0.00 72
20260906130840 58 0 0.0 0.0 0.00 0.00 0.00 72
20260906130041 58 0 0.0 0.0 0.00 0.00 0.00 72
20260906125640 58 0 0.0 0.0 0.00 0.00 0.00 72
20260906124841 58 0 0.0 0.0 0.00 0.00 0.00 72
20260906124041 58 0 0.0 0.0 0.00 0.00 0.00 71
20260906123242 58 0 0.0 0.0 0.00 0.00 0.00 72
20260906122441 58 0 0.0 0.0 0.00 0.00 0.00 71
20260906121641 58 0 0.0 0.0 0.00 0.00 0.00 71
20260906120040 58 0 0.0 0.0 0.00 0.00 0.00 72
20260906114841 59 0 0.0 0.0 0.00 0.00 0.00 71
20260906114040 59 0 0.0 0.0 0.00 0.00 0.00 70
20260906113241 59 0 0.0 0.0 0.00 0.00 0.00 70
20260906111640 59 0 0.0 0.0 0.00 0.00 0.00 70
20260906110841 59 0 0.0 0.0 0.00 0.00 0.00 70
20260906110041 59 0 0.0 0.0 0.00 0.00 0.00 70
20260906105641 59 0 0.0 0.0 0.00 0.00 0.00 70
20260906104841 59 0 0.0 0.0 0.00 0.00 0.00 69
20260906104042 59 0 0.0 0.0 0.00 0.00 0.00 69
20260906103241 60 0 0.0 0.0 0.00 0.00 0.00 68
20260906102441 60 0 0.0 0.0 0.00 0.00 0.00 67
20260906101640 61 0 0.0 0.0 0.00 0.00 0.00 65
20260906100840 61 0 0.0 0.0 0.00 0.00 0.00 65
20260906094841 60 0 0.0 0.0 0.00 0.00 0.00 65
20260906094041 60 0 0.0 0.0 0.00 0.00 0.00 66
20260906092440 60 0 0.0 0.0 0.00 0.00 0.00 66
20260906091641 60 0 0.0 0.0 0.00 0.00 0.00 66
20260906090841 60 0 0.0 0.0 0.00 0.00 0.00 66
20260906090041 60 0 0.0 0.0 0.00 0.00 0.00 66
20260906085641 60 0 0.0 0.0 0.00 0.00 0.00 66
20260906084840 60 0 0.0 0.0 0.00 0.00 0.00 66
20260906084040 60 0 0.0 0.0 0.00 0.00 0.00 66
20260906083241 60 0 0.0 0.0 0.00 0.00 0.00 66
20260906082441 60 0 0.0 0.0 0.00 0.00 0.00 66
20260906080841 60 0 0.0 0.0 0.00 0.00 0.00 66
20260906080041 61 0 0.0 0.0 0.00 0.00 0.00 65
20260906075641 61 0 0.0 0.0 0.00 0.00 0.00 66
20260906074841 61 0 0.0 0.0 0.00 0.00 0.00 65
20260906074041 61 0 0.0 0.0 0.00 0.00 0.00 65
20260906073241 61 0 0.0 0.0 0.00 0.00 0.00 66
20260906071641 61 0 0.0 0.0 0.00 0.00 0.00 67
20260906070841 61 0 0.0 0.0 0.00 0.00 0.00 66
20260906070041 61 0 0.0 0.0 0.00 0.00 0.00 67
20260906064841 61 0 0.0 0.0 0.00 0.00 0.00 68
20260906064041 62 0 0.0 0.0 0.00 0.00 0.00 69
20260906061640 65 0 0.0 0.0 0.00 0.00 0.00 65
20260906060840 66 0 0.0 0.0 0.00 0.00 0.00 63
20260906060041 67 0 0.0 0.0 0.00 0.00 0.00 55
20260906055642 67 0 0.0 0.0 0.00 0.00 0.00 53
20260906054841 67 0 0.0 0.0 0.00 0.00 0.00 53
20260906054041 67 0 0.0 0.0 0.00 0.00 0.00 54
20260906053241 67 0 0.0 0.0 0.00 0.00 0.00 54
20260906052441 68 0 0.0 0.0 0.00 0.00 0.00 54
20260906050840 66 0 0.0 0.0 0.00 0.00 0.00 54
20260906050041 65 0 0.0 0.0 0.00 0.00 0.00 57
20260906045641 65 0 0.0 0.0 0.00 0.00 0.00 59
20260906044841 63 0 0.0 0.0 0.00 0.00 0.00 63
20260906044041 62 0 0.0 0.0 0.00 0.00 0.00 67
20260906043241 63 0 0.0 0.0 0.00 0.00 0.00 67
20260906042441 64 0 0.0 0.0 0.00 0.00 0.00 67
20260906041641 64 0 0.0 0.0 0.00 0.00 0.00 64
20260906040842 64 0 0.0 0.0 0.00 0.00 0.00 65
20260906040041 64 0 0.0 0.0 0.00 0.00 0.00 64
20260906035641 63 0 0.0 0.0 0.00 0.00 0.00 65
20260906034841 62 0 0.0 0.0 0.00 0.00 0.00 67
20260906034041 63 0 0.0 0.0 0.00 0.00 0.00 68
20260906033241 63 0 0.0 0.0 0.00 0.00 0.00 68
20260906030841 63 0 0.0 0.0 0.00 0.00 0.00 63
20260906030041 63 0 0.0 0.0 0.00 0.00 0.00 59
20260906025641 64 0 0.0 0.0 0.00 0.00 0.00 58
20260906022441 65 0 0.0 0.0 0.00 0.00 0.00 54
20260906021641 65 0 0.0 0.0 0.00 0.00 0.00 53
20260906020841 65 0 0.0 0.0 0.00 0.00 0.00 52
20260906020041 65 0 0.0 0.0 0.00 0.00 0.00 52
20260906015641 66 0 0.0 0.0 0.00 0.00 0.00 52
20260906014841 66 0 0.0 0.0 0.00 0.00 0.00 51
20260906014041 66 0 0.0 0.0 0.00 0.00 0.00 51
20260906013241 67 0 0.0 0.0 0.00 0.00 0.00 50
20260906012441 67 0 0.0 0.0 0.00 0.00 0.00 50
20260906011641 67 0 0.0 0.0 0.00 0.00 0.00 49
20260906010840 68 0 0.0 0.0 0.00 0.00 0.00 49
20260906010040 69 0 0.0 0.0 0.00 0.00 0.00 49
20260906005642 69 0 0.0 0.0 0.00 0.00 0.00 49
20260906004841 70 0 0.0 0.0 0.00 0.00 0.00 48
20260906003241 71 0 0.0 0.0 0.00 0.00 0.00 48
20260906002440 71 0 0.0 0.0 0.00 0.00 0.00 48
20260906001640 72 0 0.0 0.0 0.00 0.00 0.00 46
20260906000841 72 0 0.0 0.0 0.00 0.00 0.00 45
20260906000041 72 0 0.0 0.0 0.00 0.00 0.00 43
20260905234841 72 0 0.0 0.0 0.00 0.00 0.00 43
20260905234042 72 0 0.0 0.0 0.00 0.00 0.00 44
20260905233242 72 0 0.0 0.0 0.00 0.00 0.00 45
20260905232441 72 0 0.0 0.0 0.00 0.00 0.00 43
20260905231640 72 0 0.0 0.0 0.00 0.00 0.00 44
20260905230041 72 0 0.0 0.0 0.00 0.00 0.00 46
20260905225641 72 0 0.0 0.0 0.00 0.00 0.00 47
20260905224841 72 0 0.0 0.0 0.00 0.00 0.00 46
20260905224041 71 0 0.0 0.0 0.00 0.00 0.00 47
20260905222440 71 0 0.0 0.0 0.00 0.00 0.00 48
20260905221641 72 0 0.0 0.0 0.00 0.00 0.00 47
20260905220842 72 0 0.0 0.0 0.00 0.00 0.00 47
20260905220041 72 0 0.0 0.0 0.00 0.00 0.00 46
20260905215642 72 0 0.0 0.0 0.00 0.00 0.00 46
20260905214842 72 0 0.0 0.0 0.00 0.00 0.00 46